CW0354 Weather Reports


time (UTC)temp
C
wind
direction
speed
KPH
gust
KPH
rain 1hr
cm
rain 24hr
cm
rain mn
cm
humidity
%
barometer
mb
20260506162411 15 231 20.9 37.0 0.00 0.00 0.00 79 1009.6
20260506161910 15 246 22.5 41.8 0.00 0.00 0.00 78 1009.6
20260506161410 15 233 20.9 37.0 0.00 0.00 0.00 78 1009.6
20260506160907 15 239 20.9 33.8 0.00 0.00 0.00 78 1009.5
20260506155912 15 229 19.3 29.0 0.00 0.00 0.00 78 1009.6
20260506155407 15 234 20.9 40.2 0.00 0.00 0.00 78 1009.6
20260506154907 15 232 19.3 37.0 0.00 0.00 0.00 77 1009.7
20260506153905 16 233 20.9 38.6 0.00 0.00 0.00 77 1009.8
20260506153406 16 231 20.9 37.0 0.00 0.00 0.00 76 1010.0
20260506151912 16 233 19.3 41.8 0.00 0.00 0.00 76 1009.9
20260506151405 16 232 22.5 40.2 0.00 0.00 0.00 76 1010.1
20260506150906 16 243 19.3 33.8 0.00 0.00 0.00 76 1010.0
20260506150410 16 230 19.3 33.8 0.00 0.00 0.00 76 1009.8
20260506145417 16 227 19.3 37.0 0.00 0.00 0.00 76 1009.8
20260506144910 16 231 22.5 35.4 0.00 0.00 0.00 75 1009.8
20260506144410 16 237 17.7 35.4 0.00 0.00 0.00 75 1009.9
20260506143906 16 230 19.3 33.8 0.00 0.00 0.00 74 1009.9
20260506143410 16 241 19.3 29.0 0.00 0.00 0.00 74 1010.2
20260506142912 17 239 17.7 38.6 0.00 0.00 0.00 73 1010.2
20260506142408 17 244 16.1 25.7 0.00 0.00 0.00 72 1010.4
20260506141910 17 251 19.3 35.4 0.00 0.00 0.00 72 1010.4
20260506141406 17 238 19.3 32.2 0.00 0.00 0.00 73 1010.4
20260506140906 17 240 20.9 32.2 0.00 0.00 0.00 73 1010.4
20260506135907 17 240 19.3 35.4 0.00 0.00 0.00 75 1010.4
20260506135412 17 239 19.3 37.0 0.00 0.00 0.00 75 1010.5
20260506134910 16 245 17.7 37.0 0.00 0.00 0.00 76 1010.5
20260506134410 16 239 22.5 37.0 0.00 0.00 0.00 75 1010.5
20260506133908 16 236 16.1 35.4 0.00 0.00 0.00 75 1010.6
20260506133410 16 250 17.7 32.2 0.00 0.00 0.00 76 1010.6
20260506132905 16 238 16.1 33.8 0.00 0.00 0.00 77 1010.5
20260506132412 16 241 17.7 33.8 0.00 0.00 0.00 77 1010.5
20260506131907 16 228 19.3 32.2 0.00 0.00 0.00 78 1010.5
20260506131411 16 236 19.3 33.8 0.00 0.00 0.00 78 1010.5
20260506130908 16 236 19.3 35.4 0.00 0.00 0.00 78 1010.4
20260506130410 16 239 20.9 41.8 0.00 0.00 0.00 78 1010.4
20260506125907 16 242 17.7 29.0 0.00 0.00 0.00 77 1010.3
20260506125410 16 237 19.3 35.4 0.00 0.00 0.00 77 1010.4
20260506124912 16 228 19.3 29.0 0.00 0.00 0.00 77 1010.2
20260506124410 16 231 20.9 29.0 0.00 0.00 0.00 76 1010.4
20260506123913 16 224 19.3 35.4 0.00 0.00 0.00 76 1010.5
20260506123410 16 239 17.7 32.2 0.00 0.00 0.00 77 1010.6
20260506122909 16 239 17.7 32.2 0.00 0.00 0.00 77 1010.6
20260506122407 16 241 19.3 29.0 0.00 0.00 0.00 78 1010.7
20260506121910 16 240 17.7 33.8 0.00 0.00 0.00 79 1010.7
20260506121410 16 243 17.7 33.8 0.00 0.00 0.00 79 1010.9
20260506120910 16 250 16.1 29.0 0.00 0.00 0.00 79 1010.8
20260506120412 16 232 17.7 33.8 0.00 0.00 0.00 80 1010.8
20260506115411 16 243 16.1 29.0 0.00 0.00 0.00 81 1010.6
20260506114908 15 237 14.5 29.0 0.00 0.00 0.00 82 1010.6
20260506113911 15 239 17.7 29.0 0.00 0.00 0.00 83 1010.7
20260506113410 15 249 16.1 32.2 0.00 0.00 0.00 83 1010.4
20260506112407 15 236 16.1 27.4 0.00 0.00 0.00 84 1010.5
20260506111911 15 242 14.5 27.4 0.00 0.00 0.00 85 1010.7
20260506111410 14 242 16.1 29.0 0.00 0.00 0.00 86 1010.7
20260506110912 14 235 17.7 29.0 0.00 0.00 0.00 86 1010.6
20260506110410 13 239 16.1 33.8 0.00 0.00 0.00 86 1010.4
20260506105906 13 237 14.5 27.4 0.00 0.00 0.00 86 1010.6
20260506105413 13 230 17.7 27.4 0.00 0.00 0.00 86 1010.5
20260506104910 13 230 16.1 33.8 0.00 0.00 0.00 86 1010.4
20260506104410 13 240 17.7 33.8 0.00 0.00 0.00 86 1010.4
20260506103907 13 251 17.7 32.2 0.00 0.00 0.00 86 1010.3
20260506103410 13 245 19.3 32.2 0.00 0.00 0.00 87 1010.4
20260506102413 13 236 17.7 33.8 0.00 0.00 0.00 87 1010.3
20260506101910 13 233 19.3 29.0 0.00 0.00 0.00 87 1010.2
20260506101410 13 238 17.7 35.4 0.00 0.00 0.00 87 1010.2
20260506100907 13 232 16.1 37.0 0.00 0.00 0.00 87 1010.3
20260506095905 13 233 20.9 29.0 0.00 0.00 0.00 87 1010.2
20260506095408 13 239 17.7 32.2 0.00 0.00 0.00 86 1010.3
20260506094912 13 240 19.3 35.4 0.00 0.00 0.00 86 1010.1
20260506094410 13 233 19.3 40.2 0.00 0.00 0.00 86 1010.2
20260506093909 13 235 19.3 33.8 0.00 0.00 0.00 86 1010.1
20260506093409 13 238 17.7 29.0 0.00 0.00 0.00 86 1010.0
20260506092908 13 236 20.9 33.8 0.00 0.00 0.00 86 1010.1
20260506092413 13 238 19.3 38.6 0.00 0.00 0.00 86 1010.1
20260506091910 13 236 20.9 32.2 0.00 0.00 0.00 86 1010.2
20260506090908 13 240 19.3 32.2 0.00 0.00 0.00 86 1010.2
20260506090410 13 233 17.7 32.2 0.00 0.00 0.00 86 1010.4
20260506085911 13 238 19.3 33.8 0.00 0.00 0.00 86 1010.3
20260506083912 13 236 20.9 40.2 0.00 0.00 0.00 85 1010.4
20260506083410 13 239 20.9 40.2 0.00 0.00 0.00 85 1010.3
20260506082907 13 234 20.9 33.8 0.00 0.00 0.00 85 1010.3
20260506081910 13 233 19.3 35.4 0.00 0.00 0.00 85 1010.5
20260506081412 13 239 19.3 37.0 0.00 0.00 0.00 85 1010.5
20260506080916 14 237 19.3 41.8 0.00 0.00 0.00 85 1010.5
20260506080407 13 238 19.3 40.2 0.00 0.00 0.00 85 1010.6
20260506072906 14 238 19.3 38.6 0.00 0.00 0.00 84 1010.7
20260506072411 14 241 19.3 38.6 0.00 0.00 0.00 84 1010.8
20260506071910 14 244 16.1 35.4 0.00 0.00 0.00 84 1010.9
20260506071410 13 239 19.3 29.0 0.00 0.00 0.00 84 1010.9
20260506070910 14 240 16.1 32.2 0.00 0.00 0.00 84 1010.9
20260506070410 14 246 14.5 35.4 0.00 0.00 0.00 84 1010.9
20260506062412 14 247 16.1 35.4 0.00 0.00 0.00 83 1010.8
20260506061907 14 242 19.3 37.0 0.00 0.00 0.00 82 1010.7
20260506061406 14 251 20.9 38.6 0.00 0.00 0.00 82 1010.8
20260506060912 14 241 20.9 35.4 0.00 0.00 0.00 82 1010.8
20260506060414 14 243 20.9 37.0 0.00 0.00 0.00 82 1010.7
20260506051410 14 244 19.3 32.2 0.00 0.00 0.00 82 1010.9
20260506050906 15 244 20.9 32.2 0.00 0.00 0.00 82 1011.0
20260506050410 14 243 19.3 35.4 0.00 0.00 0.00 82 1011.0
20260506044407 14 243 19.3 29.0 0.00 0.00 0.00 81 1011.1
20260506043908 14 247 19.3 32.2 0.00 0.00 0.00 81 1011.1
20260506042909 15 245 17.7 32.2 0.00 0.00 0.00 81 1011.1
20260506041907 15 246 19.3 38.6 0.00 0.00 0.00 81 1011.1
20260506041408 15 250 22.5 38.6 0.00 0.00 0.00 81 1011.1
20260506040941 15 245 22.5 38.6 0.00 0.00 0.00 81 1011.1
20260506040408 15 229 20.9 41.8 0.00 0.00 0.00 81 1010.9
20260506035906 15 252 20.9 40.2 0.00 0.00 0.00 81 1011.0
20260506035409 15 243 20.9 35.4 0.00 0.00 0.00 81 1011.0
20260506034410 15 245 19.3 38.6 0.00 0.00 0.00 81 1011.1
20260506033410 14 247 19.3 27.4 0.00 0.00 0.00 80 1011.1
20260506031908 15 246 19.3 40.2 0.00 0.00 0.00 80 1011.1
20260506031410 15 242 16.1 35.4 0.00 0.00 0.00 80 1011.1
20260506030410 15 232 19.3 32.2 0.00 0.00 0.00 80 1011.1
20260506025911 15 249 16.1 32.2 0.00 0.00 0.00 80 1011.2
20260506025409 15 246 17.7 27.4 0.00 0.00 0.00 80 1011.3
20260506024910 15 240 19.3 32.2 0.00 0.00 0.00 80 1011.3
20260506024410 15 244 19.3 33.8 0.00 0.00 0.00 80 1011.2
20260506023909 15 248 17.7 33.8 0.00 0.00 0.00 79 1011.2
20260506023410 15 246 17.7 35.4 0.00 0.00 0.00 79 1011.2
20260506022915 15 238 17.7 35.4 0.00 0.00 0.00 79 1011.3
20260506022409 15 246 19.3 35.4 0.00 0.00 0.00 79 1011.2
20260506021910 15 248 19.3 35.4 0.00 0.00 0.00 79 1011.2
20260506021410 15 249 20.9 37.0 0.00 0.00 0.00 79 1011.1
20260506020908 15 239 20.9 32.2 0.00 0.00 0.00 79 1011.1
20260506020410 15 240 19.3 37.0 0.00 0.00 0.00 78 1011.2
20260506015912 15 253 16.1 32.2 0.00 0.00 0.00 78 1011.2
20260506015409 15 244 20.9 35.4 0.00 0.00 0.00 78 1011.0
20260506014910 15 245 17.7 33.8 0.00 0.00 0.00 78 1011.0
20260506014410 15 242 17.7 27.4 0.00 0.00 0.00 78 1011.0
20260506013906 15 236 17.7 37.0 0.00 0.00 0.00 77 1011.1
20260506013410 15 235 19.3 33.8 0.00 0.00 0.00 77 1010.9
20260506012408 15 232 19.3 40.2 0.00 0.00 0.00 76 1010.7
20260506011410 15 230 19.3 40.2 0.00 0.00 0.00 76 1010.8
20260506010912 15 244 16.1 35.4 0.00 0.00 0.00 75 1010.8
20260506010410 15 243 22.5 40.2 0.00 0.00 0.00 75 1010.7
20260506005906 15 247 20.9 38.6 0.00 0.00 0.00 75 1010.7
20260506005409 15 239 22.5 45.1 0.00 0.00 0.00 75 1010.7
20260506004911 15 237 24.1 45.1 0.00 0.00 0.00 75 1010.4
20260506004410 15 236 24.1 46.7 0.00 0.00 0.00 75 1010.5
20260506003910 15 240 22.5 45.1 0.00 0.00 0.00 75 1010.4
20260506003411 15 244 24.1 41.8 0.00 0.00 0.00 75 1010.4
20260506002906 15 236 24.1 41.8 0.00 0.00 0.00 74 1010.4
20260506002413 15 236 20.9 45.1 0.00 0.00 0.00 74 1010.3
20260506001905 15 243 25.7 40.2 0.00 0.00 0.00 74 1010.2
20260506001410 15 241 20.9 40.2 0.00 0.00 0.00 74 1010.1
20260506000910 16 243 22.5 46.7 0.00 0.00 0.00 74 1010.0
20260506000409 15 240 24.1 41.8 0.00 0.00 0.00 74 1009.9
20260505235910 16 229 22.5 41.8 0.00 0.00 0.00 74 1009.8
20260505235409 16 234 22.5 40.2 0.00 0.00 0.00 73 1009.8
20260505234911 16 232 22.5 41.8 0.00 0.00 0.00 73 1009.6
20260505234411 16 240 24.1 37.0 0.00 0.00 0.00 73 1009.4
20260505233907 16 234 25.7 41.8 0.00 0.00 0.00 73 1009.3
20260505233410 16 234 22.5 41.8 0.00 0.00 0.00 72 1009.1
20260505232907 16 226 22.5 46.7 0.00 0.00 0.00 72 1009.2
20260505232409 16 236 24.1 41.8 0.00 0.00 0.00 72 1009.1
20260505231906 16 239 25.7 45.1 0.00 0.00 0.00 72 1009.1
20260505231406 16 242 24.1 38.6 0.00 0.00 0.00 72 1009.1
20260505230911 16 235 25.7 45.1 0.00 0.00 0.00 71 1009.1
20260505230408 16 226 22.5 38.6 0.00 0.00 0.00 71 1009.0
20260505225911 16 241 25.7 41.8 0.00 0.00 0.00 70 1009.1
20260505225412 16 233 22.5 46.7 0.00 0.00 0.00 70 1009.0
20260505224910 17 230 25.7 49.9 0.00 0.00 0.00 69 1008.9
20260505224413 17 234 27.4 41.8 0.00 0.00 0.00 69 1008.8
20260505223909 17 240 25.7 48.3 0.00 0.00 0.00 68 1008.9
20260505223407 17 231 24.1 37.0 0.00 0.00 0.00 68 1008.8
20260505222919 17 231 25.7 40.2 0.00 0.00 0.00 67 1008.9
20260505222406 17 232 22.5 46.7 0.00 0.00 0.00 67 1008.8
20260505221407 17 220 24.1 41.8 0.00 0.00 0.00 66 1008.6
20260505220911 17 215 22.5 48.3 0.00 0.00 0.00 66 1008.6
20260505220407 18 215 25.7 48.3 0.00 0.00 0.00 66 1008.6
20260505215911 18 220 27.4 45.1 0.00 0.00 0.00 65 1008.7
20260505214911 18 219 20.9 49.9 0.00 0.00 0.00 66 1008.6
20260505214410 18 207 20.9 40.2 0.00 0.00 0.00 65 1008.6
20260505213912 18 215 19.3 41.8 0.00 0.00 0.00 65 1008.5
20260505212910 18 215 22.5 41.8 0.00 0.00 0.00 65 1008.4
20260505212408 18 219 20.9 40.2 0.00 0.00 0.00 65 1008.5
20260505211910 18 208 24.1 38.6 0.00 0.00 0.00 64 1008.4
20260505211411 18 207 24.1 40.2 0.00 0.00 0.00 64 1008.4
20260505210911 18 213 25.7 46.7 0.00 0.00 0.00 64 1008.4
20260505210406 18 220 25.7 41.8 0.00 0.00 0.00 63 1008.4
20260505205909 18 209 25.7 40.2 0.00 0.00 0.00 64 1008.3
20260505205406 18 209 22.5 40.2 0.00 0.00 0.00 63 1008.4
20260505204910 18 211 22.5 45.1 0.00 0.00 0.00 63 1008.4
20260505204411 18 218 20.9 45.1 0.00 0.00 0.00 63 1008.3
20260505203410 18 206 20.9 38.6 0.00 0.00 0.00 63 1008.4
20260505202910 18 208 22.5 38.6 0.00 0.00 0.00 63 1008.5
20260505202417 18 212 20.9 41.8 0.00 0.00 0.00 63 1008.5
20260505201910 18 209 20.9 41.8 0.00 0.00 0.00 63 1008.6
20260505201410 18 203 20.9 35.4 0.00 0.00 0.00 64 1008.6
20260505200908 18 213 24.1 48.3 0.00 0.00 0.00 64 1008.7
20260505195911 18 217 22.5 40.2 0.00 0.00 0.00 63 1008.8
20260505195410 18 207 22.5 38.6 0.00 0.00 0.00 63 1008.8
20260505194410 18 210 19.3 37.0 0.00 0.00 0.00 63 1009.0
20260505193908 19 211 22.5 37.0 0.00 0.00 0.00 62 1009.2
20260505193410 19 217 20.9 37.0 0.00 0.00 0.00 62 1009.2
20260505192911 19 213 19.3 35.4 0.00 0.00 0.00 62 1009.3
20260505192412 19 212 19.3 32.2 0.00 0.00 0.00 62 1009.4
20260505191910 19 209 19.3 37.0 0.00 0.00 0.00 62 1009.4
20260505191410 19 209 17.7 32.2 0.00 0.00 0.00 62 1009.5
20260505190906 19 214 19.3 35.4 0.00 0.00 0.00 62 1009.6
20260505190411 19 210 20.9 37.0 0.00 0.00 0.00 62 1009.7
20260505185908 19 220 17.7 32.2 0.00 0.00 0.00 62 1009.8
20260505185406 19 210 19.3 35.4 0.00 0.00 0.00 62 1009.9
20260505184910 20 218 19.3 33.8 0.00 0.00 0.00 61 1010.1
20260505184411 20 223 17.7 37.0 0.00 0.00 0.00 60 1010.1
20260505183410 20 217 14.5 32.2 0.00 0.00 0.00 59 1010.1
20260505182911 21 221 12.9 27.4 0.00 0.00 0.00 59 1010.3
20260505181910 21 222 8.0 16.1 0.00 0.00 0.00 60 1010.6
20260505181411 21 244 8.0 16.1 0.00 0.00 0.00 60 1010.6
20260505180909 20 255 11.3 22.5 0.00 0.00 0.00 60 1010.8
20260505180410 20 247 11.3 20.9 0.00 0.00 0.00 60 1010.9
20260505175912 20 240 11.3 25.7 0.00 0.00 0.00 60 1010.8
20260505175407 20 256 9.7 20.9 0.00 0.00 0.00 60 1011.0
20260505174910 20 240 11.3 24.1 0.00 0.00 0.00 61 1011.0
20260505174410 20 216 12.9 25.7 0.00 0.00 0.00 61 1010.8
20260505173912 20 229 12.9 22.5 0.00 0.00 0.00 61 1010.7
20260505172910 20 214 16.1 24.1 0.00 0.00 0.00 60 1010.9
20260505172410 20 235 11.3 22.5 0.00 0.00 0.00 61 1010.9
20260505171410 20 248 11.3 20.9 0.00 0.00 0.00 61 1011.0
20260505170912 20 237 14.5 24.1 0.00 0.00 0.00 61 1011.1
20260505170410 20 229 11.3 24.1 0.00 0.00 0.00 61 1011.1
20260505165911 20 247 12.9 22.5 0.00 0.00 0.00 62 1011.1
20260505164910 20 226 9.7 20.9 0.00 0.00 0.00 61 1011.1
20260505164411 20 225 14.5 24.1 0.00 0.00 0.00 60 1011.1
20260505163908 20 214 11.3 19.3 0.00 0.00 0.00 61 1011.3
20260505163410 21 225 9.7 22.5 0.00 0.00 0.00 61 1011.4